EW6308 Weather Reports


Display with metric or nautical units.
time (UTC)temp
F
wind
direction
speed
MPH
gust
MPH
rain 1hr
in
rain 24hr
in
rain mn
in
humidity
%
barometer
mb
20260903001112 91 122 6.0 14.0 0.00 0.00 0.00 54 1013.3
20260903000609 92 4 5.0 9.0 0.00 0.00 0.00 53 1013.4
20260903000108 92 116 4.0 11.0 0.00 0.00 0.00 52 1013.3
20260902235607 92 101 9.0 13.0 0.00 0.00 0.00 52 1013.2
20260902235102 93 103 11.0 21.0 0.00 0.00 0.00 50 1013.4
20260902234556 94 89 5.0 11.0 0.00 0.00 0.00 48 1013.1
20260902234055 96 110 14.0 21.0 0.00 0.00 0.00 45 1013.2
20260902233550 98 98 4.0 14.0 0.00 0.00 0.00 41 1012.9
20260902233050 98 73 3.0 8.0 0.00 0.00 0.00 40 1012.9
20260902232544 99 31 5.0 8.0 0.00 0.00 0.00 38 1012.8
20260902232043 99 29 3.0 7.0 0.00 0.00 0.00 36 1012.8
20260902231538 99 354 3.0 4.0 0.00 0.00 0.00 36 1012.8
20260902231038 99 2 4.0 4.0 0.00 0.00 0.00 36 1012.7
20260902230533 99 125 2.0 3.0 0.00 0.00 0.00 36 1012.7
20260902230032 99 39 4.0 6.0 0.00 0.00 0.00 35 1012.8
20260902225528 99 9 2.0 4.0 0.00 0.00 0.00 35 1012.7
20260902225027 100 341 4.0 10.0 0.00 0.00 0.00 35 1012.7
20260902224526 100 352 7.0 10.0 0.00 0.00 0.00 34 1012.6
20260902224022 101 28 1.0 6.0 0.00 0.00 0.00 35 1012.6
20260902223518 100 89 3.0 8.0 0.00 0.00 0.00 35 1012.6
20260902223017 101 32 4.0 7.0 0.00 0.00 0.00 35 1012.6
20260902222516 100 315 1.0 8.0 0.00 0.00 0.00 36 1012.6
20260902222015 100 62 3.0 3.0 0.00 0.00 0.00 35 1012.7
20260902221515 99 51 2.0 3.0 0.00 0.00 0.00 37 1012.7
20260902221010 99 317 2.0 6.0 0.00 0.00 0.00 36 1012.9
20260902220505 99 10 6.0 8.0 0.00 0.00 0.00 37 1013.0
20260902215959 99 339 7.0 9.0 0.00 0.00 0.00 36 1012.9
20260902215456 99 340 4.0 6.0 0.00 0.00 0.00 36 1012.9
20260902214951 100 354 6.0 8.0 0.00 0.00 0.00 35 1012.9
20260902214450 100 86 2.0 7.0 0.00 0.00 0.00 36 1012.9
20260902213944 99 288 1.0 3.0 0.00 0.00 0.00 36 1012.9
20260902213441 99 112 4.0 6.0 0.00 0.00 0.00 37 1013.0
20260902212939 99 13 3.0 3.0 0.00 0.00 0.00 36 1013.1
20260902212436 99 315 4.0 8.0 0.00 0.00 0.00 36 1013.2
20260902211932 101 26 3.0 9.0 0.00 0.00 0.00 35 1013.3
20260902211427 102 32 5.0 13.0 0.00 0.00 0.00 34 1013.1
20260902210922 101 45 3.0 7.0 0.00 0.00 0.00 34 1013.1
20260902210422 99 224 1.0 2.0 0.00 0.00 0.00 36 1013.4
20260902205920 99 323 6.0 11.0 0.00 0.00 0.00 36 1013.2
20260902205416 100 354 6.0 10.0 0.00 0.00 0.00 36 1013.3
20260902204912 101 222 2.0 8.0 0.00 0.00 0.00 35 1013.4
20260902204411 101 3 6.0 8.0 0.00 0.00 0.00 35 1013.6
20260902203907 101 306 2.0 8.0 0.00 0.00 0.00 35 1013.6
20260902203402 100 3 6.0 7.0 0.00 0.00 0.00 35 1013.8
20260902202901 101 301 4.0 4.0 0.00 0.00 0.00 35 1013.7
20260902202357 103 354 5.0 11.0 0.00 0.00 0.00 34 1014.0
20260902201854 102 256 1.0 6.0 0.00 0.00 0.00 35 1013.9
20260902201354 101 6 6.0 8.0 0.00 0.00 0.00 35 1013.8
20260902200849 100 259 4.0 6.0 0.00 0.00 0.00 36 1014.1
20260902200344 101 325 7.0 8.0 0.00 0.00 0.00 36 1014.1
20260902195839 100 358 4.0 8.0 0.00 0.00 0.00 37 1014.3
20260902195338 101 345 4.0 8.0 0.00 0.00 0.00 36 1014.2
20260902194833 100 204 4.0 6.0 0.00 0.00 0.00 36 1014.5
20260902194333 100 309 6.0 7.0 0.00 0.00 0.00 36 1014.5
20260902193829 100 245 1.0 3.0 0.00 0.00 0.00 35 1014.6
20260902193325 100 351 4.0 9.0 0.00 0.00 0.00 36 1014.6
20260902192823 100 245 0.0 4.0 0.00 0.00 0.00 38 1014.6
20260902192322 101 342 6.0 9.0 0.00 0.00 0.00 37 1015.0
20260902191822 101 308 4.0 6.0 0.00 0.00 0.00 37 1014.8
20260902191317 101 7 5.0 10.0 0.00 0.00 0.00 37 1014.9
20260902190813 100 215 1.0 4.0 0.00 0.00 0.00 39 1015.0
20260902190311 99 289 4.0 4.0 0.00 0.00 0.00 39 1015.1
20260902185808 99 307 6.0 8.0 0.00 0.00 0.00 40 1015.1
20260902185306 98 336 5.0 7.0 0.00 0.00 0.00 41 1015.4
20260902184759 98 356 4.0 9.0 0.00 0.00 0.00 39 1015.3
20260902184254 98 234 0.0 2.0 0.00 0.00 0.00 41 1015.6
20260902183750 98 3 4.0 10.0 0.00 0.00 0.00 41 1015.7
20260902183246 98 293 2.0 3.0 0.00 0.00 0.00 42 1015.6
20260902182742 98 58 4.0 7.0 0.00 0.00 0.00 42 1015.6
20260902182238 98 9 5.0 6.0 0.00 0.00 0.00 42 1015.7
20260902181734 97 344 6.0 11.0 0.00 0.00 0.00 43 1016.0
20260902181234 97 349 6.0 10.0 0.00 0.00 0.00 42 1016.0
20260902180729 98 333 4.0 8.0 0.00 0.00 0.00 42 1016.1
20260902180224 98 347 3.0 9.0 0.00 0.00 0.00 43 1016.1
20260902175719 97 11 2.0 7.0 0.00 0.00 0.00 43 1016.0
20260902175215 96 319 7.0 8.0 0.00 0.00 0.00 44 1016.3
20260902174711 95 352 4.0 6.0 0.00 0.00 0.00 44 1016.4
20260902174206 96 340 7.0 11.0 0.00 0.00 0.00 45 1016.5
20260902173702 96 354 4.0 6.0 0.00 0.00 0.00 46 1016.6
20260902173156 97 293 4.0 9.0 0.00 0.00 0.00 45 1016.7
20260902172656 95 226 2.0 2.0 0.00 0.00 0.00 46 1016.9
20260902172155 95 288 1.0 2.0 0.00 0.00 0.00 47 1017.0
20260902171651 95 240 4.0 6.0 0.00 0.00 0.00 48 1017.0
20260902171147 96 33 4.0 8.0 0.00 0.00 0.00 46 1017.3
20260902170643 95 2 2.0 3.0 0.00 0.00 0.00 47 1017.5
20260902170138 95 295 4.0 4.0 0.00 0.00 0.00 48 1017.4
20260902165633 94 223 1.0 3.0 0.00 0.00 0.00 49 1017.5
20260902165132 94 166 2.0 7.0 0.00 0.00 0.00 49 1017.5
20260902164628 94 259 3.0 7.0 0.00 0.00 0.00 50 1017.6
20260902164126 93 264 1.0 3.0 0.00 0.00 0.00 50 1017.5
20260902163622 93 336 3.0 4.0 0.00 0.00 0.00 52 1017.6
20260902163121 94 338 4.0 8.0 0.00 0.00 0.00 51 1017.5
20260902162620 93 92 2.0 3.0 0.00 0.00 0.00 51 1017.7
20260902162115 91 15 0.0 3.0 0.00 0.00 0.00 54 1017.6
20260902161610 91 10 3.0 6.0 0.00 0.00 0.00 55 1017.7
20260902161106 92 351 6.0 7.0 0.00 0.00 0.00 53 1018.0
20260902160602 91 37 1.0 3.0 0.00 0.00 0.00 54 1017.8
20260902160057 91 206 3.0 7.0 0.00 0.00 0.00 54 1017.7
20260902155555 91 218 1.0 2.0 0.00 0.00 0.00 53 1017.9
20260902155054 91 55 2.0 3.0 0.00 0.00 0.00 55 1017.9
20260902154549 92 349 3.0 6.0 0.00 0.00 0.00 54 1017.8
20260902154044 91 178 1.0 2.0 0.00 0.00 0.00 55 1017.8
20260902153542 91 335 2.0 3.0 0.00 0.00 0.00 55 1017.8
20260902153038 89 284 1.0 1.0 0.00 0.00 0.00 57 1017.7
20260902152535 90 78 2.0 6.0 0.00 0.00 0.00 57 1017.8
20260902152030 89 162 3.0 6.0 0.00 0.00 0.00 57 1017.8
20260902151526 89 217 3.0 3.0 0.00 0.00 0.00 58 1017.9
20260902151025 88 93 1.0 3.0 0.00 0.00 0.00 59 1017.7
20260902150521 88 336 2.0 4.0 0.00 0.00 0.00 59 1017.8
20260902150016 88 345 2.0 3.0 0.00 0.00 0.00 60 1017.8
20260902145511 89 347 3.0 4.0 0.00 0.00 0.00 58 1017.8
20260902145010 88 185 2.0 2.0 0.00 0.00 0.00 60 1017.8
20260902144507 87 140 1.0 3.0 0.00 0.00 0.00 61 1017.8
20260902144002 87 82 3.0 4.0 0.00 0.00 0.00 61 1017.9
20260902143457 87 100 2.0 3.0 0.00 0.00 0.00 63 1017.7
20260902142952 86 106 3.0 6.0 0.00 0.00 0.00 63 1017.8
20260902142448 86 41 2.0 3.0 0.00 0.00 0.00 65 1018.1
20260902141943 85 107 2.0 2.0 0.00 0.00 0.00 65 1018.0
20260902141438 84 113 4.0 4.0 0.00 0.00 0.00 67 1018.0
20260902140937 84 74 1.0 4.0 0.00 0.00 0.00 68 1018.0
20260902140433 84 103 4.0 4.0 0.00 0.00 0.00 68 1017.9
20260902135932 82 102 3.0 4.0 0.00 0.00 0.00 70 1017.9
20260902135428 81 119 1.0 2.0 0.00 0.00 0.00 74 1017.9
20260902134927 81 87 2.0 3.0 0.00 0.00 0.00 75 1017.9
20260902134423 80 285 0.0 2.0 0.00 0.00 0.00 75 1017.9
20260902133919 81 96 2.0 2.0 0.00 0.00 0.00 75 1017.9
20260902133418 81 80 0.0 0.0 0.00 0.00 0.00 75 1017.7
20260902132913 81 80 0.0 1.0 0.00 0.00 0.00 75 1017.8
20260902132409 81 220 0.0 1.0 0.00 0.00 0.00 74 1017.6
20260902131904 80 186 0.0 0.0 0.00 0.00 0.00 77 1017.6
20260902131401 79 133 0.0 0.0 0.00 0.00 0.00 80 1017.6
20260902130859 78 182 0.0 0.0 0.00 0.00 0.00 81 1017.6
20260902130356 78 89 1.0 2.0 0.00 0.00 0.00 81 1017.6
20260902125850 77 117 0.0 0.0 0.00 0.00 0.00 82 1017.3
20260902125346 77 117 0.0 0.0 0.00 0.00 0.00 82 1017.2
20260902124842 77 117 0.0 0.0 0.00 0.00 0.00 82 1017.4
20260902124338 77 136 0.0 0.0 0.00 0.00 0.00 83 1017.3
20260902123833 76 136 0.0 0.0 0.00 0.00 0.00 84 1017.2
20260902123329 76 136 0.0 0.0 0.00 0.00 0.00 85 1017.2
20260902122827 76 136 0.0 0.0 0.00 0.00 0.00 85 1017.1
20260902122324 76 136 0.0 0.0 0.00 0.00 0.00 85 1017.1
20260902121823 76 136 0.0 0.0 0.00 0.00 0.00 84 1017.0
20260902121319 76 136 0.0 0.0 0.00 0.00 0.00 84 1017.2
20260902120814 76 136 0.0 0.0 0.00 0.00 0.00 84 1017.1
20260902120310 76 231 0.0 0.0 0.00 0.00 0.00 83 1017.1
20260902115805 76 231 0.0 0.0 0.00 0.00 0.00 83 1017.2
20260902115301 77 252 0.0 0.0 0.00 0.00 0.00 83 1017.1
20260902114757 77 242 0.0 0.0 0.00 0.00 0.00 83 1016.9
20260902114254 77 258 0.0 0.0 0.00 0.00 0.00 83 1016.9
20260902113753 77 39 0.0 0.0 0.00 0.00 0.00 83 1016.9
20260902113248 77 267 0.0 0.0 0.00 0.00 0.00 82 1016.8
20260902112748 77 240 0.0 0.0 0.00 0.00 0.00 82 1016.9
20260902112245 77 273 0.0 0.0 0.00 0.00 0.00 82 1016.9
20260902111740 77 257 0.0 0.0 0.00 0.00 0.00 81 1017.0
20260902111236 77 298 0.0 0.0 0.00 0.00 0.00 81 1017.0
20260902110732 77 312 0.0 0.0 0.00 0.00 0.00 81 1017.1
20260902110228 77 261 0.0 0.0 0.00 0.00 0.00 81 1017.0
20260902105727 77 263 0.0 0.0 0.00 0.00 0.00 82 1017.1
20260902105222 77 254 0.0 0.0 0.00 0.00 0.00 82 1017.1
20260902104718 77 254 0.0 0.0 0.00 0.00 0.00 82 1016.9
20260902104214 77 250 0.0 0.0 0.00 0.00 0.00 81 1017.1
20260902103713 77 240 0.0 0.0 0.00 0.00 0.00 81 1017.1
20260902103208 77 256 0.0 1.0 0.00 0.00 0.00 81 1017.0
20260902102704 77 266 0.0 0.0 0.00 0.00 0.00 81 1016.9
20260902102201 77 255 0.0 0.0 0.00 0.00 0.00 80 1017.1
20260902101701 77 241 0.0 0.0 0.00 0.00 0.00 79 1017.1
20260902101156 77 227 0.0 0.0 0.00 0.00 0.00 79 1016.9
20260902100650 77 225 0.0 0.0 0.00 0.00 0.00 79 1016.9
20260902100145 77 232 0.0 0.0 0.00 0.00 0.00 79 1016.9
20260902095644 77 251 0.0 0.0 0.00 0.00 0.00 79 1016.8
20260902095144 78 234 0.0 0.0 0.00 0.00 0.00 78 1016.8
20260902094639 78 228 0.0 0.0 0.00 0.00 0.00 78 1016.9
20260902094135 78 156 0.0 0.0 0.00 0.00 0.00 78 1016.9
20260902093634 78 113 0.0 0.0 0.00 0.00 0.00 78 1016.7
20260902093130 78 210 0.0 1.0 0.00 0.00 0.00 77 1016.8
20260902092624 78 244 0.0 0.0 0.00 0.00 0.00 77 1016.8
20260902092119 78 245 0.0 0.0 0.00 0.00 0.00 77 1016.6
20260902091614 78 238 0.0 0.0 0.00 0.00 0.00 76 1016.7
20260902091111 79 226 0.0 0.0 0.00 0.00 0.00 76 1016.8
20260902090607 79 224 0.0 0.0 0.00 0.00 0.00 76 1016.8
20260902090106 79 232 0.0 0.0 0.00 0.00 0.00 75 1017.0
20260902085606 79 233 0.0 0.0 0.00 0.00 0.00 75 1016.9
20260902085100 79 184 0.0 0.0 0.00 0.00 0.00 75 1017.1
20260902084557 79 234 1.0 1.0 0.00 0.00 0.00 75 1016.9
20260902084052 79 244 0.0 1.0 0.00 0.00 0.00 75 1016.9
20260902083548 79 241 0.0 0.0 0.00 0.00 0.00 75 1017.1
20260902083047 79 237 0.0 0.0 0.00 0.00 0.00 74 1017.0
20260902082543 80 228 0.0 0.0 0.00 0.00 0.00 74 1017.0
20260902082039 80 228 0.0 0.0 0.00 0.00 0.00 74 1017.2
20260902081536 80 233 0.0 1.0 0.00 0.00 0.00 73 1017.1
20260902081035 80 228 0.0 0.0 0.00 0.00 0.00 72 1017.0
20260902080531 80 228 0.0 0.0 0.00 0.00 0.00 72 1017.3
20260902080027 80 229 0.0 0.0 0.00 0.00 0.00 72 1016.9
20260902075527 81 226 1.0 1.0 0.00 0.00 0.00 71 1016.9
20260902075023 81 255 1.0 2.0 0.00 0.00 0.00 71 1017.0
20260902074518 81 217 1.0 1.0 0.00 0.00 0.00 71 1017.0
20260902074013 81 238 1.0 1.0 0.00 0.00 0.00 70 1017.2
20260902073509 81 216 1.0 2.0 0.00 0.00 0.00 70 1017.4
20260902073006 81 221 0.0 1.0 0.00 0.00 0.00 70 1017.4
20260902072501 82 217 0.0 2.0 0.00 0.00 0.00 70 1017.3
20260902071957 82 199 1.0 1.0 0.00 0.00 0.00 70 1017.5
20260902071456 82 232 3.0 3.0 0.00 0.00 0.00 70 1017.4
20260902070953 81 227 2.0 2.0 0.00 0.00 0.00 70 1017.4
20260902070448 81 190 1.0 2.0 0.00 0.00 0.00 70 1017.3
20260902065947 81 237 1.0 3.0 0.00 0.00 0.00 70 1017.3
20260902065442 81 221 1.0 2.0 0.00 0.00 0.00 70 1017.5
20260902064937 81 222 3.0 4.0 0.00 0.00 0.00 70 1017.5
20260902064432 81 218 1.0 3.0 0.00 0.00 0.00 70 1017.5
20260902063928 81 227 2.0 2.0 0.00 0.00 0.00 70 1017.5
20260902063427 81 172 1.0 2.0 0.00 0.00 0.00 70 1017.6
20260902062923 81 220 2.0 3.0 0.00 0.00 0.00 69 1017.5
20260902062423 81 191 2.0 3.0 0.00 0.00 0.00 69 1017.7
20260902061922 82 214 3.0 3.0 0.00 0.00 0.00 69 1017.6
20260902061418 82 219 2.0 3.0 0.00 0.00 0.00 69 1017.6
20260902060914 82 222 2.0 2.0 0.00 0.00 0.00 69 1017.5
20260902060409 82 239 1.0 2.0 0.00 0.00 0.00 69 1017.4
20260902055905 82 218 2.0 3.0 0.00 0.00 0.00 69 1017.3
20260902055401 82 233 2.0 2.0 0.00 0.00 0.00 68 1017.4
20260902054856 82 197 2.0 3.0 0.00 0.00 0.00 68 1017.3
20260902054352 82 206 1.0 2.0 0.00 0.00 0.00 68 1017.1
20260902053847 82 216 2.0 2.0 0.00 0.00 0.00 68 1017.1
20260902053342 82 209 2.0 3.0 0.00 0.00 0.00 68 1017.2
20260902052841 82 222 1.0 2.0 0.00 0.00 0.00 68 1017.3
20260902052337 83 214 2.0 2.0 0.00 0.00 0.00 67 1017.2
20260902051832 83 204 1.0 1.0 0.00 0.00 0.00 67 1017.2
20260902051332 83 187 1.0 2.0 0.00 0.00 0.00 67 1017.1
20260902050832 83 211 1.0 2.0 0.00 0.00 0.00 66 1017.2
20260902050331 83 165 1.0 1.0 0.00 0.00 0.00 66 1017.1
20260902045826 84 216 0.0 1.0 0.00 0.00 0.00 65 1017.2
20260902045322 84 215 1.0 2.0 0.00 0.00 0.00 65 1017.1
20260902044818 84 167 2.0 3.0 0.00 0.00 0.00 65 1017.2
20260902044314 84 221 1.0 1.0 0.00 0.00 0.00 65 1017.3
20260902043813 84 227 2.0 2.0 0.00 0.00 0.00 65 1017.2
20260902043309 84 193 2.0 3.0 0.00 0.00 0.00 64 1017.1
20260902042808 84 220 0.0 2.0 0.00 0.00 0.00 64 1017.5
20260902042308 84 204 2.0 2.0 0.00 0.00 0.00 64 1017.3
20260902041759 84 225 1.0 3.0 0.00 0.00 0.00 64 1017.2
20260902041258 85 190 2.0 3.0 0.00 0.00 0.00 63 1017.1
20260902040757 85 178 1.0 2.0 0.00 0.00 0.00 63 1017.2
20260902040253 85 123 3.0 6.0 0.00 0.00 0.00 63 1017.2
20260902035751 85 262 1.0 3.0 0.00 0.00 0.00 63 1017.2
20260902035248 85 98 2.0 2.0 0.00 0.00 0.00 63 1017.0
20260902034746 85 188 0.0 6.0 0.00 0.00 0.00 62 1017.2
20260902034241 86 219 1.0 1.0 0.00 0.00 0.00 62 1017.1
20260902033739 86 205 1.0 3.0 0.00 0.00 0.00 61 1016.9
20260902033235 86 174 3.0 3.0 0.00 0.00 0.00 61 1016.9
20260902032733 86 100 2.0 3.0 0.00 0.00 0.00 60 1016.8
20260902032229 86 115 5.0 7.0 0.00 0.00 0.00 59 1016.7
20260902031728 87 262 2.0 7.0 0.00 0.00 0.00 59 1016.7
20260902031224 87 172 3.0 8.0 0.00 0.00 0.00 58 1016.5
20260902030720 87 205 3.0 4.0 0.00 0.00 0.00 58 1016.6
20260902030220 87 170 2.0 4.0 0.00 0.00 0.00 57 1016.6
20260902025719 88 157 1.0 9.0 0.00 0.00 0.00 57 1016.3
20260902025214 88 81 1.0 10.0 0.00 0.00 0.00 56 1016.2
20260902024709 88 217 5.0 8.0 0.00 0.00 0.00 55 1016.3
20260902024204 89 132 5.0 8.0 0.00 0.00 0.00 55 1016.1
20260902023700 89 253 4.0 10.0 0.00 0.00 0.00 53 1016.0
20260902023155 89 195 2.0 6.0 0.00 0.00 0.00 52 1015.9
20260902022654 90 186 2.0 8.0 0.00 0.00 0.00 52 1015.8
20260902022150 89 240 3.0 6.0 0.00 0.00 0.00 51 1015.8
20260902021646 90 229 0.0 1.0 0.00 0.00 0.00 51 1015.3
20260902021140 90 230 1.0 3.0 0.00 0.00 0.00 51 1015.5
20260902020636 90 95 0.0 1.0 0.00 0.00 0.00 51 1015.3
20260902020132 91 215 0.0 1.0 0.00 0.00 0.00 50 1015.3
20260902015627 91 200 1.0 1.0 0.00 0.00 0.00 49 1015.2
20260902015123 91 223 0.0 1.0 0.00 0.00 0.00 49 1015.2
20260902014619 91 171 0.0 1.0 0.00 0.00 0.00 49 1015.0
20260902014114 91 219 0.0 1.0 0.00 0.00 0.00 49 1015.1
20260902013614 91 237 0.0 1.0 0.00 0.00 0.00 49 1014.9
20260902013109 92 225 0.0 1.0 0.00 0.00 0.00 48 1014.9
20260902012605 92 186 0.0 1.0 0.00 0.00 0.00 47 1014.9
20260902012100 92 207 1.0 2.0 0.00 0.00 0.00 47 1014.8
20260902011555 93 115 1.0 2.0 0.00 0.00 0.00 47 1014.9
20260902011055 93 231 0.0 0.0 0.00 0.00 0.00 46 1014.8
20260902010554 93 225 0.0 2.0 0.00 0.00 0.00 46 1014.7
20260902010050 94 108 2.0 4.0 0.00 0.00 0.00 45 1014.8
20260902005548 94 108 2.0 3.0 0.00 0.00 0.00 44 1014.7
20260902005044 94 50 1.0 2.0 0.00 0.00 0.00 44 1014.8
20260902004543 95 93 4.0 6.0 0.00 0.00 0.00 44 1014.9
20260902004039 95 99 2.0 3.0 0.00 0.00 0.00 43 1014.7
20260902003534 95 172 1.0 2.0 0.00 0.00 0.00 43 1014.8
20260902003030 95 192 2.0 2.0 0.00 0.00 0.00 43 1014.6
20260902002526 96 193 1.0 4.0 0.00 0.00 0.00 43 1014.7
20260902002020 96 54 3.0 4.0 0.00 0.00 0.00 42 1014.7
20260902001514 96 233 1.0 1.0 0.00 0.00 0.00 41 1014.8